Find Starlink 38011

NORAD ID: 100412 Int'l Des: 2026-192 Owner: SPXS Country: US Constellation: starlink operational

現在のビュー

3D地球を読み込み中...

About Starlink 38011

Starlink 38011 (NORAD 100412) is a starlink constellation satellite launched Aug 21, 2026 by SPXS of US. with a mass of 575.00 kg.

次回通過

Passes for default location (London). Set your location on the main map for personalized predictions.

高度履歴

Loading altitude history...

軌道要素

1 A0412U 26192J 26262.92942969 .00036319 00000-0 65725-3 0 9995
2 A0412 53.1599 308.5829 0001589 68.1928 291.9250 15.49342767 5824
Epoch: Sep 19, 2026 • Age: 18 hours

現在のステータス

高度 437.6 km
遠地点 / 近地点 N/A
速度 7.65 km/s
衛星直下点 -52.18°S, 47.74°W
打ち上げ日 Aug 21, 2026
運用期間 30 days
タイプ internet

技術仕様

分類 Payload
質量 575.00 kg
乾燥質量 530.00 kg
長さ 0.30 m
スパン 29.00 m
形状 ? Box + pan
製造者 SPXS
バスタイプ Starlink V2MO
フェーズステータス In Orbit
所有者/国 SPXS/US

Most Searched